Skip Page Navigation
NASA JPL Caltech
NASA Logo - Jet Propulsion Laboratory + View the NASA Portal
+ Center for Near-Earth Object Studies
JPL Home Earth Solar System Stars & Galaxies Technology
JPL Solar System Dynamics
BODIES ORBITS EPHEMERIDES TOOLS PHYSICAL DATA DISCOVERY FAQ SITE MAP
JPL Small-Body Database Browser
Search: [ help ]  
181557 (2006 UJ282)
Classification: Main-belt Asteroid          SPK-ID: 2181557
Ephemeris | Orbit Diagram | Orbital Elements | Mission Design | Physical Parameters | Discovery Circumstances | Close-Approach Data ]

[ show orbit diagram ]
Orbital Elements at Epoch 2459200.5 (2020-Dec-17.0) TDB
Reference: JPL 18 (heliocentric ecliptic J2000)
 Element Value Uncertainty (1-sigma)   Units 
e .1183304119016723 5.0322e-08  
a 3.000827590627962 2.8454e-08 au
q 2.645738425783052 1.4998e-07 au
i 1.295578456942281 5.9902e-06 deg
node 161.8986208498181 0.00022287 deg
peri 308.3599031921452 0.00022412 deg
M 212.9294198983716 2.3561e-05 deg
tp 2459976.181257484174
(2023-Jan-31.68125748)
0.000127 TDB
period 1898.715926063113
5.20
2.7006e-05
7.394e-08
d
yr
n .1896018225045602 2.6968e-09 deg/d
Q 3.355916755472871 3.1821e-08 au
  Orbit Determination Parameters
   # obs. used (total)      346  
   data-arc span      8656 days (23.70 yr)  
   first obs. used      1995-09-23  
   last obs. used      2019-06-05  
   planetary ephem.      DE441  
   SB-pert. ephem.      SB441-N16  
   condition code      0  
   norm. resid. RMS      .6589  
   source      ORB  
   producer      Otto Matic  
   solution date      2021-Apr-13 21:31:05  

Additional Information
 Earth MOID = 1.66254 au 
 Jupiter MOID = 1.74947 au 
 T_jup = 3.242 
[ show covariance matrix ]

Ephemeris | Orbit Diagram | Orbital Elements | Mission Design | Physical Parameters | Discovery Circumstances | Close-Approach Data ]

Physical Parameter Table
Parameter Symbol Value Units Sigma Reference Notes
absolute magnitude H 16.16   n/a MPCxxxxx  

181557 (2006 UJ282)          Discovered 2006-Oct-28 by Mt. Lemmon Survey at Mount Lemmon
Reference: 20080321/Numbers.arcLast Updated: 2008-03-26

[ show close-approach data ]
Ephemeris | Orbit Diagram | Orbital Elements | Mission Design | Physical Parameters | Discovery Circumstances | Close-Approach Data ]
ABOUT SSD CREDITS/AWARDS PRIVACY/COPYRIGHT GLOSSARY LINKS
FirstGov 2021-Jun-21 23:19 UT
(server date/time)  
NASA Home Page
Site Manager:   Ryan S. Park
Webmaster  Alan B. Chamberlin